DLH72N LIMC-EDDF

Flight info

Callsign DLH72N
Flight time 0h 53m
Altitude 32000
Route PEPAG DCT ABESI N851 UTAVO DCT ROLSA DCT LADOL T163 EMPAX EMPAX5B
Aircraft A321/M-SDE3FGHIRWY/LB1

Departure

Time 2026-05-04 19:09
Airport Milan Malpensa International Airport (LIMC)

Arrival

Time 2026-05-04 20:03
Airport Frankfurt Main Airport (EDDF)
Time Latitude Longitude Altitude Speed Heading
2026-05-04 18:44 45.62507 8.71760 737 ft 0 kts 258°
2026-05-04 19:00 45.62509 8.71778 735 ft 4 kts 258°
2026-05-04 19:00 45.62515 8.71816 735 ft 3 kts 258°
2026-05-04 19:00 45.62521 8.71845 736 ft 4 kts 224°
2026-05-04 19:00 45.62542 8.71858 736 ft 4 kts 174°
2026-05-04 19:01 45.62558 8.71854 735 ft 1 kts 167°
2026-05-04 19:01 45.62560 8.71854 735 ft 0 kts 167°
2026-05-04 19:03 45.62555 8.71855 736 ft 3 kts 167°
2026-05-04 19:03 45.62510 8.71870 735 ft 10 kts 167°
2026-05-04 19:03 45.62427 8.71894 736 ft 13 kts 169°
2026-05-04 19:04 45.62345 8.71936 736 ft 11 kts 117°
2026-05-04 19:04 45.62356 8.72048 737 ft 12 kts 77°
2026-05-04 19:04 45.62372 8.72172 737 ft 13 kts 85°
2026-05-04 19:04 45.62309 8.72239 737 ft 13 kts 171°
2026-05-04 19:05 45.62225 8.72283 737 ft 14 kts 119°
2026-05-04 19:05 45.62236 8.72429 738 ft 16 kts 79°
2026-05-04 19:05 45.62260 8.72601 738 ft 19 kts 78°
2026-05-04 19:05 45.62276 8.72732 737 ft 22 kts 82°
2026-05-04 19:06 45.62303 8.73008 737 ft 11 kts 100°
2026-05-04 19:06 45.62269 8.73035 737 ft 9 kts 164°
2026-05-04 19:06 45.62200 8.73054 735 ft 12 kts 172°
2026-05-04 19:06 45.62100 8.73073 737 ft 17 kts 172°
2026-05-04 19:07 45.61967 8.73110 736 ft 22 kts 167°
2026-05-04 19:07 45.61806 8.73161 737 ft 24 kts 167°
2026-05-04 19:07 45.61690 8.73308 737 ft 23 kts 123°
2026-05-04 19:07 45.61602 8.73502 737 ft 23 kts 121°
2026-05-04 19:08 45.61592 8.73701 737 ft 15 kts 81°
2026-05-04 19:08 45.61616 8.73739 737 ft 5 kts 353°
2026-05-04 19:08 45.61753 8.73704 738 ft 52 kts 349°
2026-05-04 19:08 45.62340 8.73540 740 ft 118 kts 349°
2026-05-04 19:09 45.63337 8.73264 738 ft 170 kts 349°
2026-05-04 19:09 45.64506 8.72947 1341 ft 167 kts 350°
2026-05-04 19:09 45.65652 8.72946 2059 ft 169 kts 18°
2026-05-04 19:09 45.66595 8.74055 2327 ft 191 kts 60°
2026-05-04 19:10 45.66892 8.75943 2688 ft 203 kts 84°
2026-05-04 19:10 45.67272 8.77881 3202 ft 202 kts 54°
2026-05-04 19:10 45.68271 8.79243 3805 ft 198 kts 37°
2026-05-04 19:10 45.69408 8.80454 4249 ft 207 kts 35°
2026-05-04 19:11 45.70597 8.81674 4724 ft 213 kts 35°
2026-05-04 19:11 45.71793 8.82910 5244 ft 215 kts 39°
2026-05-04 19:11 45.72616 8.84689 5715 ft 218 kts 77°
2026-05-04 19:11 45.72499 8.86827 6065 ft 228 kts 114°
2026-05-04 19:12 45.71633 8.88829 6361 ft 242 kts 126°
2026-05-04 19:12 45.69596 8.92699 7759 ft 242 kts 128°
2026-05-04 19:12 45.68593 8.94592 8492 ft 241 kts 129°
2026-05-04 19:13 45.67577 8.96505 9252 ft 240 kts 130°
2026-05-04 19:13 45.66574 8.98389 9961 ft 240 kts 130°
2026-05-04 19:13 45.65579 9.00334 10555 ft 243 kts 128°
2026-05-04 19:13 45.64786 9.02529 11037 ft 255 kts 111°
2026-05-04 19:14 45.64485 9.05130 11311 ft 278 kts 92°
2026-05-04 19:14 45.64558 9.07988 11524 ft 296 kts 92°
2026-05-04 19:14 45.64580 9.10991 11777 ft 312 kts 93°
2026-05-04 19:14 45.64585 9.14188 12062 ft 327 kts 93°
2026-05-04 19:15 45.64614 9.18551 12279 ft 350 kts 91°
2026-05-04 19:15 45.64691 9.25908 12543 ft 385 kts 91°
2026-05-04 19:15 45.64770 9.33746 12902 ft 414 kts 88°
2026-05-04 19:15 45.67240 9.41214 13632 ft 430 kts 42°
2026-05-04 19:16 45.72096 9.44161 14326 ft 432 kts
2026-05-04 19:16 45.75070 9.43613 14614 ft 429 kts 340°
2026-05-04 19:16 45.77839 9.42127 15038 ft 430 kts 334°
2026-05-04 19:16 45.81753 9.38348 15723 ft 427 kts 315°
2026-05-04 19:17 45.85709 9.31980 16584 ft 428 kts 304°
2026-05-04 19:17 45.90339 9.26642 17357 ft 445 kts 336°
2026-05-04 19:17 45.96274 9.23772 18203 ft 450 kts 339°
2026-05-04 19:17 46.02212 9.20772 18873 ft 454 kts 338°
2026-05-04 19:18 46.08163 9.17705 19525 ft 459 kts 338°
2026-05-04 19:18 46.14255 9.14594 20159 ft 464 kts 338°
2026-05-04 19:18 46.20380 9.11487 20811 ft 469 kts 338°
2026-05-04 19:18 46.26627 9.08317 21457 ft 473 kts 338°
2026-05-04 19:19 46.32804 9.05157 22075 ft 478 kts 338°
2026-05-04 19:19 46.39110 9.01943 22657 ft 483 kts 340°
2026-05-04 19:19 46.45831 9.00287 23200 ft 491 kts 353°
2026-05-04 19:19 46.52606 8.99409 23653 ft 495 kts 353°
2026-05-04 19:20 46.59525 8.98446 23997 ft 500 kts 353°
2026-05-04 19:20 46.66467 8.97485 24452 ft 498 kts 353°
2026-05-04 19:20 46.73318 8.96552 24912 ft 497 kts 353°
2026-05-04 19:20 46.80206 8.95622 25380 ft 496 kts 353°
2026-05-04 19:21 46.87089 8.94694 25931 ft 494 kts 353°
2026-05-04 19:21 46.93924 8.93755 26571 ft 491 kts 353°
2026-05-04 19:21 47.00652 8.92824 27218 ft 489 kts 353°
2026-05-04 19:21 47.07421 8.91888 27891 ft 487 kts 353°
2026-05-04 19:22 47.14137 8.90968 28582 ft 485 kts 353°
2026-05-04 19:22 47.20798 8.90050 29300 ft 482 kts 353°
2026-05-04 19:22 47.23041 8.89740 29547 ft 481 kts 353°
2026-05-04 19:23 47.25485 8.89408 29796 ft 481 kts 353°
2026-05-04 19:23 47.32182 8.89159 30483 ft 480 kts
2026-05-04 19:23 47.36301 8.89466 30906 ft 478 kts
2026-05-04 19:23 47.41749 8.89857 31482 ft 475 kts
2026-05-04 19:24 47.47955 8.90292 31754 ft 481 kts
2026-05-04 19:24 47.53151 8.90662 31982 ft 484 kts
2026-05-04 19:24 47.56548 8.90906 32000 ft 488 kts
2026-05-04 19:25 47.63344 8.91395 31997 ft 491 kts
2026-05-04 19:25 47.70199 8.91907 31991 ft 491 kts
2026-05-04 19:26 47.77023 8.92416 31989 ft 492 kts
2026-05-04 19:26 47.83855 8.92911 31995 ft 493 kts
2026-05-04 19:27 47.90691 8.93406 32001 ft 493 kts
2026-05-04 19:27 47.97450 8.93909 31992 ft 468 kts
2026-05-04 19:28 48.03854 8.94381 31992 ft 459 kts
2026-05-04 19:28 48.10108 8.94845 31990 ft 436 kts
2026-05-04 19:28 48.13105 8.95070 31989 ft 423 kts
2026-05-04 19:29 48.16046 8.95292 31992 ft 419 kts
2026-05-04 19:29 48.21850 8.95957 31993 ft 418 kts
2026-05-04 19:30 48.27613 8.96907 31991 ft 418 kts
2026-05-04 19:31 48.33245 8.97822 32009 ft 420 kts
2026-05-04 19:31 48.38987 8.98725 31988 ft 409 kts
2026-05-04 19:32 48.44617 8.99585 31989 ft 407 kts
2026-05-04 19:32 48.50179 9.00424 31986 ft 406 kts
2026-05-04 19:32 48.53060 9.00861 31846 ft 416 kts
2026-05-04 19:33 48.55990 9.01307 31574 ft 426 kts
2026-05-04 19:33 48.58935 9.01759 31330 ft 430 kts
2026-05-04 19:33 48.61929 9.02217 31084 ft 432 kts
2026-05-04 19:33 48.64904 9.02728 30696 ft 428 kts
2026-05-04 19:34 48.67847 9.03369 30259 ft 425 kts
2026-05-04 19:34 48.70763 9.04092 29791 ft 422 kts
2026-05-04 19:34 48.73630 9.04837 29301 ft 419 kts
2026-05-04 19:34 48.76514 9.05585 28835 ft 415 kts
2026-05-04 19:35 48.79331 9.06296 28405 ft 412 kts
2026-05-04 19:35 48.82168 9.06993 27954 ft 408 kts
2026-05-04 19:35 48.84956 9.07665 27512 ft 404 kts
2026-05-04 19:35 48.87737 9.08327 26738 ft 399 kts
2026-05-04 19:36 48.90480 9.08890 25789 ft 397 kts
2026-05-04 19:36 48.93189 9.09312 24998 ft 390 kts
2026-05-04 19:36 48.95871 9.09658 24246 ft 382 kts
2026-05-04 19:36 48.98504 9.09975 23509 ft 375 kts
2026-05-04 19:37 49.01097 9.10295 22527 ft 369 kts
2026-05-04 19:37 49.03609 9.11260 21080 ft 381 kts 25°
2026-05-04 19:37 49.05823 9.13529 19705 ft 387 kts 46°
2026-05-04 19:37 49.07438 9.16822 18423 ft 389 kts 63°
2026-05-04 19:38 49.08688 9.20353 17535 ft 377 kts 64°
2026-05-04 19:38 49.09906 9.23865 16549 ft 370 kts 64°
2026-05-04 19:38 49.11099 9.27326 15600 ft 363 kts 64°
2026-05-04 19:38 49.12266 9.30731 15170 ft 362 kts 64°
2026-05-04 19:39 49.13426 9.34129 15013 ft 362 kts 64°
2026-05-04 19:39 49.14588 9.37540 14981 ft 361 kts 64°
2026-05-04 19:39 49.15736 9.40917 14989 ft 362 kts 64°
2026-05-04 19:39 49.16897 9.44338 14989 ft 362 kts 64°
2026-05-04 19:40 49.18066 9.47787 14991 ft 362 kts 64°
2026-05-04 19:40 49.19212 9.51171 14995 ft 362 kts 64°
2026-05-04 19:40 49.20374 9.54606 14994 ft 362 kts 64°
2026-05-04 19:40 49.21536 9.58047 14996 ft 362 kts 64°
2026-05-04 19:41 49.22683 9.61449 14996 ft 362 kts 64°
2026-05-04 19:41 49.23840 9.64881 14997 ft 362 kts 64°
2026-05-04 19:41 49.24609 9.67165 14999 ft 362 kts 64°
2026-05-04 19:41 49.26146 9.71736 14997 ft 362 kts 64°
2026-05-04 19:42 49.27329 9.75151 14993 ft 363 kts 59°
2026-05-04 19:42 49.28355 9.77191 14995 ft 364 kts 46°
2026-05-04 19:42 49.31132 9.80036 14999 ft 364 kts 19°
2026-05-04 19:42 49.32735 9.80681 14997 ft 351 kts
2026-05-04 19:43 49.35107 9.80638 14996 ft 330 kts 347°
2026-05-04 19:43 49.37243 9.79557 15000 ft 322 kts 329°
2026-05-04 19:43 49.39176 9.77831 15000 ft 321 kts 327°
2026-05-04 19:43 49.41109 9.76071 14999 ft 321 kts 327°
2026-05-04 19:44 49.43004 9.74350 14894 ft 318 kts 327°
2026-05-04 19:44 49.44920 9.72617 14448 ft 317 kts 327°
2026-05-04 19:44 49.46815 9.70904 14058 ft 315 kts 327°
2026-05-04 19:44 49.48700 9.69198 13656 ft 313 kts 327°
2026-05-04 19:45 49.50577 9.67496 13240 ft 311 kts 327°
2026-05-04 19:45 49.52411 9.65832 12810 ft 309 kts 327°
2026-05-04 19:45 49.54267 9.64142 12404 ft 307 kts 327°
2026-05-04 19:45 49.56111 9.62460 11997 ft 305 kts 327°
2026-05-04 19:46 49.57916 9.60816 11602 ft 304 kts 326°
2026-05-04 19:46 49.59740 9.59154 11200 ft 302 kts 326°
2026-05-04 19:46 49.61563 9.57491 10817 ft 300 kts 326°
2026-05-04 19:46 49.63354 9.55858 10444 ft 299 kts 326°
2026-05-04 19:47 49.65122 9.54243 10079 ft 298 kts 326°
2026-05-04 19:47 49.66899 9.52622 9973 ft 288 kts 326°
2026-05-04 19:47 49.68554 9.51115 9975 ft 271 kts 326°
2026-05-04 19:47 49.70170 9.49637 9980 ft 266 kts 326°
2026-05-04 19:48 49.71741 9.48196 9984 ft 265 kts 326°
2026-05-04 19:48 49.73320 9.46741 9986 ft 265 kts 326°
2026-05-04 19:48 49.74915 9.45267 9986 ft 264 kts 326°
2026-05-04 19:48 49.76503 9.43801 9986 ft 264 kts 326°
2026-05-04 19:49 49.78068 9.42361 9984 ft 264 kts 326°
2026-05-04 19:49 49.79645 9.40894 9985 ft 264 kts 324°
2026-05-04 19:49 49.81131 9.39274 9987 ft 262 kts 318°
2026-05-04 19:49 49.82532 9.37450 9985 ft 261 kts 313°
2026-05-04 19:50 49.83817 9.35471 9988 ft 259 kts 309°
2026-05-04 19:50 49.84973 9.33368 9985 ft 258 kts 304°
2026-05-04 19:50 49.86010 9.31110 9987 ft 256 kts 298°
2026-05-04 19:50 49.86921 9.28733 9989 ft 255 kts 294°
2026-05-04 19:51 49.87697 9.26281 9779 ft 251 kts 290°
2026-05-04 19:51 49.88333 9.23749 9447 ft 249 kts 285°
2026-05-04 19:51 49.88831 9.21216 9096 ft 248 kts 283°
2026-05-04 19:51 49.89318 9.18645 8753 ft 247 kts 283°
2026-05-04 19:52 49.89799 9.16124 8415 ft 246 kts 283°
2026-05-04 19:52 49.90282 9.13580 8088 ft 245 kts 283°
2026-05-04 19:52 49.90764 9.11041 7756 ft 244 kts 283°
2026-05-04 19:52 49.91244 9.08520 7420 ft 243 kts 283°
2026-05-04 19:53 49.91723 9.05998 7080 ft 242 kts 283°
2026-05-04 19:53 49.92184 9.03575 6755 ft 242 kts 283°
2026-05-04 19:53 49.92660 9.01063 6437 ft 240 kts 284°
2026-05-04 19:53 49.93385 8.98719 6077 ft 243 kts 310°
2026-05-04 19:54 49.94744 8.97256 5686 ft 245 kts 342°
2026-05-04 19:54 49.96434 8.96957 5320 ft 245 kts
2026-05-04 19:54 49.98146 8.97083 4984 ft 244 kts
2026-05-04 19:54 49.99845 8.97258 4666 ft 242 kts
2026-05-04 19:55 50.01501 8.97430 4362 ft 240 kts
2026-05-04 19:55 50.03161 8.97604 4071 ft 237 kts
2026-05-04 19:55 50.04811 8.97780 4020 ft 237 kts
2026-05-04 19:55 50.06444 8.97955 4012 ft 237 kts
2026-05-04 19:56 50.08025 8.98124 4041 ft 217 kts
2026-05-04 19:56 50.09508 8.98285 4021 ft 207 kts
2026-05-04 19:56 50.10892 8.97987 4021 ft 205 kts 333°
2026-05-04 19:56 50.11930 8.96507 4026 ft 204 kts 299°
2026-05-04 19:57 50.12299 8.94408 4033 ft 203 kts 267°
2026-05-04 19:57 50.11966 8.92299 4030 ft 202 kts 249°
2026-05-04 19:57 50.11479 8.90253 4022 ft 196 kts 249°
2026-05-04 19:57 50.11031 8.88360 4041 ft 183 kts 249°
2026-05-04 19:58 50.10592 8.86499 4005 ft 182 kts 249°
2026-05-04 19:58 50.10158 8.84652 3834 ft 180 kts 249°
2026-05-04 19:58 50.09731 8.82841 3610 ft 179 kts 249°
2026-05-04 19:58 50.09302 8.81018 3400 ft 179 kts 250°
2026-05-04 19:59 50.08872 8.79196 3154 ft 178 kts 250°
2026-05-04 19:59 50.08447 8.77398 2919 ft 178 kts 250°
2026-05-04 19:59 50.08021 8.75591 2681 ft 177 kts 250°
2026-05-04 19:59 50.07597 8.73799 2449 ft 177 kts 251°
2026-05-04 20:00 50.07167 8.71982 2204 ft 177 kts 251°
2026-05-04 20:00 50.06754 8.70238 1981 ft 167 kts 251°
2026-05-04 20:00 50.06362 8.68587 1737 ft 155 kts 251°
2026-05-04 20:00 50.05997 8.67052 1523 ft 150 kts 251°
2026-05-04 20:01 50.05633 8.65528 1379 ft 150 kts 251°
2026-05-04 20:01 50.05275 8.64019 1164 ft 149 kts 251°
2026-05-04 20:01 50.04921 8.62527 958 ft 146 kts 251°
2026-05-04 20:01 50.04574 8.61046 747 ft 147 kts 251°
2026-05-04 20:02 50.04222 8.59535 541 ft 147 kts 250°
2026-05-04 20:02 50.03873 8.58072 368 ft 138 kts 250°
2026-05-04 20:02 50.03587 8.56884 354 ft 94 kts 249°
2026-05-04 20:02 50.03413 8.56171 356 ft 54 kts 250°
2026-05-04 20:03 50.03303 8.55672 348 ft 34 kts 261°
2026-05-04 20:03 50.03320 8.55366 352 ft 28 kts 282°
2026-05-04 20:03 50.03331 8.55295 347 ft 1 kts 285°
2026-05-04 20:03 50.03339 8.55249 350 ft 6 kts 285°
2026-05-04 20:04 50.03352 8.55176 349 ft 8 kts 284°
2026-05-04 20:04 50.03366 8.55068 350 ft 12 kts 280°
2026-05-04 20:04 50.03363 8.54915 342 ft 17 kts 249°
2026-05-04 20:04 50.03312 8.54723 336 ft 22 kts 249°
2026-05-04 20:05 50.03275 8.54523 337 ft 16 kts 285°
2026-05-04 20:05 50.03367 8.54449 339 ft 12 kts 338°
2026-05-04 20:05 50.03379 8.54442 336 ft 0 kts 338°
2026-05-04 20:05 50.03383 8.54439 337 ft 3 kts 338°
2026-05-04 20:06 50.03432 8.54410 350 ft 11 kts 340°
2026-05-04 20:06 50.03509 8.54366 348 ft 13 kts 340°
2026-05-04 20:06 50.03604 8.54312 345 ft 14 kts 341°
2026-05-04 20:06 50.03641 8.54311 345 ft 0 kts 15°
2026-05-04 20:07 50.03644 8.54313 342 ft 2 kts 25°
2026-05-04 20:08 50.03663 8.54345 353 ft 7 kts 54°
2026-05-04 20:08 50.03689 8.54447 347 ft 13 kts 70°
2026-05-04 20:08 50.03722 8.54582 348 ft 13 kts 69°
2026-05-04 20:08 50.03762 8.54738 349 ft 19 kts 66°
2026-05-04 20:09 50.03812 8.54928 355 ft 19 kts 68°
2026-05-04 20:09 50.03857 8.55127 354 ft 20 kts 74°
2026-05-04 20:09 50.03902 8.55335 354 ft 21 kts 69°
2026-05-04 20:09 50.03954 8.55547 358 ft 22 kts 69°
2026-05-04 20:10 50.04009 8.55773 352 ft 22 kts 69°
2026-05-04 20:10 50.04029 8.55878 354 ft 0 kts 71°
2026-05-04 20:11 50.04035 8.55903 352 ft 6 kts 71°
2026-05-04 20:12 50.04060 8.56005 354 ft 14 kts 68°
2026-05-04 20:12 50.04097 8.56150 360 ft 15 kts 69°
2026-05-04 20:12 50.04135 8.56305 354 ft 16 kts 69°
2026-05-04 20:12 50.04172 8.56464 357 ft 16 kts 70°
2026-05-04 20:13 50.04205 8.56605 359 ft 0 kts 69°
2026-05-04 20:13 50.04209 8.56622 361 ft 6 kts 69°
2026-05-04 20:13 50.04235 8.56727 361 ft 15 kts 69°
2026-05-04 20:13 50.04274 8.56889 361 ft 16 kts 69°
2026-05-04 20:14 50.04298 8.56990 362 ft 0 kts 70°
2026-05-04 20:14 50.04300 8.56998 365 ft 3 kts 70°
2026-05-04 20:14 50.04312 8.57050 365 ft 7 kts 70°
2026-05-04 20:14 50.04336 8.57154 361 ft 14 kts 70°
2026-05-04 20:15 50.04376 8.57329 366 ft 19 kts 71°
2026-05-04 20:15 50.04422 8.57513 363 ft 15 kts 59°
2026-05-04 20:15 50.04515 8.57550 365 ft 16 kts 336°
2026-05-04 20:15 50.04613 8.57483 363 ft 13 kts 339°
2026-05-04 20:16 50.04666 8.57494 356 ft 7 kts 34°
2026-05-04 20:16 50.04699 8.57523 357 ft 9 kts 28°
2026-05-04 20:16 50.04724 8.57544 360 ft 0 kts 29°